Regional Weather Roundup
Issued by NWS Grand Forks, ND

Home | Current Version | Previous Version | Graphics & Text | Print | Product List | Glossary On
Versions: 1 2 3 4 5 6 7 8 9 10 11 12 13 14 15 16 17 18 19 20 21 22 23 24 25 26 27 28 29 30 31 32 33 34 35 36 37 38 39 40 41 42 43 44 45 46 47 48 49 50
000
ASUS43 KFGF 240631
RWRFGF
PRAIRIE TO PINES  WEATHER ROUNDUP
NATIONAL WEATHER SERVICE EASTERN NORTH DAKOTA/GRAND FORKS ND
100 AM CDT FRI MAR 24 2017

 **SATELLITE DATA USED TO AUGMENT SKY COVER AT AUTOMATED STATIONS**
 *****  WEATHER ACROSS EASTERN NORTH DAKOTA  *****

CITY           SKY/WX    TMP DP  RH WIND       PRES   REMARKS
GRAND FORKS    FAIR      34  33  96 N12       29.88S
6HR MIN TEMP:  34; 6HR MAX TEMP:  37; 6HR PCP: TRACE;

GRAND FRKS AFB FAIR      34  34  99 N12       29.88S
DEVILS LAKE    FAIR      31  29  92 N12       29.91F WCI  22
6HR MIN TEMP:  31; 6HR MAX TEMP:  35;

FARGO          CLOUDY    35  34  96 NE6       29.88F FOG
WAHPETON ARPT    N/A     34  32  93 E7        29.87F
$$

 ***** WEATHER ACROSS CENTRAL AND WESTERN NORTH DAKOTA  *****

CITY           SKY/WX    TMP DP  RH WIND       PRES   REMARKS
BISMARCK       FAIR      39  34  82 CALM      29.88S
6HR MIN TEMP:  36; 6HR MAX TEMP:  42; 6HR PCP:  0.06;

MINOT          FAIR      32  29  88 NW8       29.94F WCI  25
6HR MIN TEMP:  30; 6HR MAX TEMP:  42;

JAMESTOWN      FAIR      34  32  92 N16       29.85R WCI  24
6HR MIN TEMP:  34; 6HR MAX TEMP:  40; 6HR PCP: TRACE;

MINOT AFB      FAIR      31  29  91 N10       29.94F WCI  23
GARRISON         N/A     30  27  88 NW10      29.90F WCI  21
WILLISTON      FAIR      32  30  92 N9        29.95S WCI  24
6HR MIN TEMP:  31; 6HR MAX TEMP:  56;

DICKINSON      FAIR      36  35  96 NW9       29.85F
6HR MIN TEMP:  35; 6HR MAX TEMP:  49;

HETTINGER      FAIR      36  35  96 S8        29.89F
6HR MIN TEMP:  34; 6HR MAX TEMP:  43; 6HR PCP: TRACE;

$$

 *****  OTHER AIRPORT OBSERVATIONS IN OUR AREA  *****

CITY           SKY/WX    TMP DP  RH WIND       PRES   REMARKS
WALHALLA       NOT AVBL
GRAFTON AIRPOR FAIR      34  34 100 N14       29.92S WCI  24
VALLEY CITY AR CLOUDY    36  36 100 N9        29.88F
CANDO          NOT AVBL
CAVALIER APRT  NOT AVBL
GWINNER        FOG       34  34 100 MISG      29.87R VSB 0
SHEYENNE NWR     N/A     34  34 100 NE2       29.95S
ROLLA          FAIR      28  28 100 N13       29.94F WCI  18
 ***** THE ABOVE OBSERVATIONS ARE NON NWS ARE NOT QUALITY
       CONTROLLED AND MAY MIS-REPORT RAIN FOR SNOW...
$$

  *****  WEATHER ACROSS NORTHERN MINNESOTA  *****

CITY           SKY/WX    TMP DP  RH WIND       PRES   REMARKS
FLAG ISLAND    CLOUDY    36  30  80 NW10      29.90R
WARROAD        CLOUDY    36  30  80 NW5       29.92R
ROSEAU         FAIR      34  30  86 NW3       29.92R
HALLOCK        FAIR      34  32  93 N13       29.92R WCI  25
THF RVR FALLS  NOT AVBL
BAUDETTE       CLOUDY    33  32  96 CALM      29.88R FOG
6HR MIN TEMP:  33; 6HR MAX TEMP:  34;

WASKISH        DRIZZLE   34  34 100 CALM      29.91R
CROOKSTON      FAIR      34  32  93 CALM      29.92R FOG
STEPHEN NDAWN    N/A     32  32 100 N7          N/A
GREENBUSH NDAW   N/A     32  30  93 NW3         N/A
$$
  *****  WEATHER ACROSS CENTRAL AND WEST MINNESOTA  *****

CITY           SKY/WX    TMP DP  RH WIND       PRES   REMARKS
FOSSTON        MIX PCPN  30  30 100 CALM      29.90F
BEMIDJI        CLOUDY    32  32 100 NE5       29.87F FOG
PARK RAPIDS    CLOUDY    34  30  85 N5        29.88R
6HR MIN TEMP:  34; 6HR MAX TEMP:  34; 6HR PCP:  0.05;

ELBOW LAKE     CLOUDY    33  33 100 CALM      29.87R FOG
6HR MIN TEMP:  33; 6HR MAX TEMP:  34;

WADENA         DRIZZLE   32  32 100 NE5       29.87S
DETROIT LAKES  CLOUDY    34  32  93 E5        29.88F FOG
MOORHEAD       MOCLDY    34  32  93 E3        29.88F FOG
FERGUS FALLS   CLOUDY    34  34 100 E3        29.91R FOG
MORRIS MN      FAIR      36  34  93 NE3       29.85R FOG
STAPLES        CLOUDY    32  32 100 N3        29.88R FOG
$$
  *****  WEATHER ELSEWHERE ACROSS MINNESOTA  *****

CITY           SKY/WX    TMP DP  RH WIND       PRES   REMARKS
DULUTH         LGT RAIN  33  32  96 CALM      29.88S FOG
6HR MIN TEMP:  32; 6HR MAX TEMP:  33; 6HR PCP:  0.14;

INTRNTL FALLS  CLOUDY    33  32  96 CALM      29.89S
6HR MIN TEMP:  33; 6HR MAX TEMP:  34;

ELY            LGT SNOW  32  32 100 CALM      29.90R
CLOQUET        MIX PCPN  32  30  93 CALM      29.88S
WHEATON        CLOUDY    34  34 100 NE5       29.90R FOG
BRAINERD       CLOUDY    33  32  96 NE6       29.87F FOG
6HR MIN TEMP:  33; 6HR MAX TEMP:  34; 6HR PCP:  0.02;

HIBBING        CLOUDY    31  31 100 N3        29.89F FOG
6HR MIN TEMP:  31; 6HR MAX TEMP:  32; 6HR PCP:  0.24;

ALEXANDRIA     CLOUDY    34  33  96 NE8       29.86S FOG
6HR MIN TEMP:  34; 6HR MAX TEMP:  34;

SAINT CLOUD    CLOUDY    35  35 100 E6        29.85F FOG
6HR MIN TEMP:  35; 6HR MAX TEMP:  35; 6HR PCP:  0.08;

MINNEAPOLIS    LGT RAIN  39  36  89 E5        29.88R FOG
6HR MIN TEMP:  38; 6HR MAX TEMP:  39; 6HR PCP:  0.15;

$$

  *****  WEATHER ACROSS SOUTH DAKOTA  *****

CITY           SKY/WX    TMP DP  RH WIND       PRES   REMARKS
SIOUX FALLS    LGT RAIN  43  41  93 N9        29.77R
6HR MIN TEMP:  43; 6HR MAX TEMP:  48; 6HR PCP:  0.03;

BROOKINGS      CLOUDY    36  36 100 NE7       29.78R FOG
WATERTOWN      CLOUDY    34  34 100 N6        29.82R FOG
6HR MIN TEMP:  34; 6HR MAX TEMP:  39;

HURON          CLOUDY    39  39 100 N10       29.83R
6HR MIN TEMP:  39; 6HR MAX TEMP:  43; 6HR PCP: TRACE;

SISSETON         N/A     35  35 100 NE7       29.85S
ABERDEEN       CLOUDY    36  33  89 N6        29.87R
6HR MIN TEMP:  35; 6HR MAX TEMP:  39;

MITCHELL       CLOUDY    42  42 100 N13       29.84R FOG
PIERRE         CLOUDY    42  36  79 N10       29.86R
6HR MIN TEMP:  42; 6HR MAX TEMP:  57;

MOBRIDGE       CLOUDY    45  36  70 N10       29.88R
RAPID CITY     CLOUDY    41  37  86 N10       29.94R
6HR MIN TEMP:  40; 6HR MAX TEMP:  46;

$$

  *****  SOME WEATHER IN NEARBY STATES *****

CITY           SKY/WX    TMP DP  RH WIND       PRES   REMARKS
GLASGOW MT     FAIR      40  29  64 W6        29.93S
6HR MIN TEMP:  40; 6HR MAX TEMP:  60;

GREAT FALLS MT FAIR      29  18  63 SW7       30.00S WCI  22
6HR MIN TEMP:  27; 6HR MAX TEMP:  54;

CHEYENNE WY    CLOUDY    35  32  88 N23G40    29.86R WCI  23
6HR MIN TEMP:  35; 6HR MAX TEMP:  58; 6HR PCP: TRACE;

SCOTTSBLUFF NE CLOUDY    43  38  82 N22G30    29.87F
6HR MIN TEMP:  43; 6HR MAX TEMP:  61; 6HR PCP:  0.06;

OMAHA NE       CLOUDY    71  49  45 S22G30    29.67R
6HR MIN TEMP:  70; 6HR MAX TEMP:  74; 6HR PCP: TRACE;

DES MOINES IA  MOCLDY    56  42  59 SE6       29.76S
6HR MIN TEMP:  53; 6HR MAX TEMP:  57;

DAVENPORT IA   FAIR      45  39  79 S13       29.88F
6HR MIN TEMP:  41; 6HR MAX TEMP:  46;

CHICAGO IL     MOCLDY    44  33  65 S8        29.98F
6HR MIN TEMP:  44; 6HR MAX TEMP:  50; 6HR PCP:  0.02;

EAU CLAIRE WI  LGT RAIN  38  37  97 NE6       29.88S FOG
6HR MIN TEMP:  38; 6HR MAX TEMP:  42; 6HR PCP:  0.03;

LA CROSSE WI   CLOUDY    41  36  82 SE3       29.85F
6HR MIN TEMP:  38; 6HR MAX TEMP:  41; 6HR PCP: TRACE;

$$

  *****  SOME NATIONAL WEATHER *****

CITY           SKY/WX    TMP DP  RH WIND       PRES   REMARKS
LA GUARDIA NY  FAIR      39  21  48 S6        30.52F
6HR MIN TEMP:  39; 6HR MAX TEMP:  43;

RALEIGH NC     FAIR      42  28  57 S6        30.53S
6HR MIN TEMP:  42; 6HR MAX TEMP:  49;

ATLANTA GA     CLOUDY    59  40  49 SE9       30.40F
6HR MIN TEMP:  59; 6HR MAX TEMP:  62;

NEW ORLEANS LA FAIR      70  66  87 SE12      30.19F
6HR MIN TEMP:  70; 6HR MAX TEMP:  75;

OKLAHOMA CITY  FAIR      71  39  31 S29G40    29.80R
6HR MIN TEMP:  70; 6HR MAX TEMP:  79;

ALBUQUERQUE NM MOCLDY    43  30  60 SW20G29   29.89S
6HR MIN TEMP:  42; 6HR MAX TEMP:  49; 6HR PCP: TRACE;

SALT LAKE CITY FAIR      36  34  92 CALM      30.09R
6HR MIN TEMP:  36; 6HR MAX TEMP:  42;

LOS ANGELES CA FAIR      57  52  83 S5        30.21R
6HR MIN TEMP:  57; 6HR MAX TEMP:  63;

BOISE ID       FAIR


USA.gov is the U.S. government's official web portal to all federal, state and local government web resources and services.